DW4238 Weather Reports


Display with metric or nautical units.
time (UTC)temp
F
wind
direction
speed
MPH
gust
MPH
rain 1hr
in
rain 24hr
in
rain mn
in
humidity
%
barometer
mb
20260506071116 76 147 13.0 19.0 0.00 0.00 0.00 90 1007.4
20260506070525 76 148 11.0 17.0 0.00 0.00 0.00 89 1007.5
20260506062024 76 158 11.0 17.0 0.00 0.00 0.00 89 1007.8
20260506061543 76 175 9.0 14.0 0.00 0.00 0.00 90 1007.9
20260506061052 76 148 10.0 14.0 0.00 0.00 0.00 89 1007.9
20260506060541 76 148 10.0 17.0 0.00 0.00 0.00 89 1007.9
20260506051040 76 150 11.0 15.0 0.00 0.00 0.00 89 1007.8
20260506050549 76 155 12.0 18.0 0.00 0.00 0.00 89 1007.8
20260506045053 76 162 10.0 14.0 0.00 0.00 0.00 89 1007.9
20260506044525 76 134 9.0 15.0 0.00 0.00 0.00 88 1007.9
20260506044028 77 162 10.0 15.0 0.00 0.00 0.00 88 1008.0
20260506043635 77 140 9.0 14.0 0.00 0.00 0.00 88 1008.0
20260506043046 77 157 10.0 16.0 0.00 0.00 0.00 87 1007.9
20260506042528 77 161 11.0 15.0 0.00 0.00 0.00 87 1008.0
20260506041601 77 154 11.0 15.0 0.00 0.00 0.00 88 1007.8
20260506041100 77 175 10.0 15.0 0.00 0.00 0.00 88 1007.8
20260506040610 77 169 8.0 13.0 0.00 0.00 0.00 88 1007.6
20260506040028 77 163 8.0 15.0 0.00 0.00 0.00 87 1007.5
20260506035539 77 166 9.0 15.0 0.00 0.00 0.00 87 1007.4
20260506034602 77 171 10.0 14.0 0.00 0.00 0.00 87 1007.2
20260506034112 77 184 10.0 14.0 0.00 0.00 0.00 86 1007.1
20260506033108 77 184 12.0 16.0 0.00 0.00 0.00 86 1006.9
20260506032549 78 150 13.0 18.0 0.00 0.00 0.00 86 1006.9
20260506032056 78 153 11.0 18.0 0.00 0.00 0.00 85 1006.9
20260506031526 78 165 12.0 19.0 0.00 0.00 0.00 85 1007.0
20260506031031 78 179 12.0 20.0 0.00 0.00 0.00 85 1006.9
20260506030035 78 181 10.0 16.0 0.00 0.00 0.00 85 1006.9
20260506025550 78 159 10.0 15.0 0.00 0.00 0.00 85 1006.9
20260506024545 78 165 8.0 17.0 0.00 0.00 0.00 84 1006.8
20260506024032 78 156 10.0 17.0 0.00 0.00 0.00 84 1006.8
20260506023053 78 172 8.0 15.0 0.00 0.00 0.00 84 1006.7
20260506022541 78 180 9.0 15.0 0.00 0.00 0.00 84 1006.6
20260506021601 78 186 9.0 12.0 0.00 0.00 0.00 83 1006.6
20260506021104 78 153 7.0 12.0 0.00 0.00 0.00 83 1006.6
20260506020043 79 167 9.0 15.0 0.00 0.00 0.00 83 1006.5
20260506015556 79 180 9.0 15.0 0.00 0.00 0.00 83 1006.5
20260506015054 79 171 8.0 12.0 0.00 0.00 0.00 83 1006.4
20260506014524 79 180 9.0 12.0 0.00 0.00 0.00 83 1006.2
20260506014036 79 163 9.0 14.0 0.00 0.00 0.00 83 1006.2
20260506013057 79 177 9.0 14.0 0.00 0.00 0.00 82 1006.0
20260506012600 79 175 9.0 16.0 0.00 0.00 0.00 82 1005.8
20260506012110 79 168 10.0 15.0 0.00 0.00 0.00 82 1005.8
20260506011528 79 165 10.0 17.0 0.00 0.00 0.00 82 1005.6
20260506011043 79 182 10.0 19.0 0.00 0.00 0.00 82 1005.6
20260506010104 80 152 13.0 17.0 0.00 0.00 0.00 81 1005.5
20260506005614 80 157 12.0 17.0 0.00 0.00 0.00 81 1005.4
20260506005116 80 166 11.0 16.0 0.00 0.00 0.00 81 1005.4
20260506004543 80 175 9.0 17.0 0.00 0.00 0.00 80 1005.4
20260506004024 80 146 11.0 17.0 0.00 0.00 0.00 80 1005.4
20260506003614 81 155 11.0 15.0 0.00 0.00 0.00 80 1005.3
20260506003041 81 155 11.0 15.0 0.00 0.00 0.00 80 1005.3
20260506002544 81 171 10.0 15.0 0.00 0.00 0.00 80 1005.4
20260506001608 81 172 11.0 18.0 0.00 0.00 0.00 79 1005.4
20260506001118 81 161 9.0 11.0 0.00 0.00 0.00 80 1005.3
20260506000555 81 175 7.0 18.0 0.00 0.00 0.00 80 1005.5
20260506000024 81 170 12.0 18.0 0.00 0.00 0.00 79 1005.5
20260505235535 81 158 7.0 17.0 0.00 0.00 0.00 80 1005.5
20260505234555 81 178 11.0 17.0 0.00 0.00 0.00 79 1005.3
20260505234058 81 165 12.0 18.0 0.00 0.00 0.00 79 1005.3
20260505233100 81 161 12.0 18.0 0.00 0.00 0.00 79 1005.3
20260505232603 82 160 13.0 18.0 0.00 0.00 0.00 78 1005.1
20260505231606 82 149 11.0 18.0 0.00 0.00 0.00 78 1005.3
20260505231034 82 158 10.0 15.0 0.00 0.00 0.00 78 1005.3
20260505225526 82 166 14.0 16.0 0.00 0.00 0.00 77 1005.1
20260505225133 83 166 9.0 17.0 0.00 0.00 0.00 77 1005.0
20260505224537 83 182 12.0 17.0 0.00 0.00 0.00 78 1004.9
20260505224042 83 180 9.0 17.0 0.00 0.00 0.00 78 1005.1
20260505223608 83 146 13.0 17.0 0.00 0.00 0.00 77 1005.1
20260505223034 83 205 13.0 18.0 0.00 0.00 0.00 74 1005.2
20260505222541 84 182 13.0 21.0 0.00 0.00 0.00 74 1005.3
20260505221601 84 150 11.0 20.0 0.00 0.00 0.00 74 1005.0
20260505221049 84 184 8.0 15.0 0.00 0.00 0.00 75 1005.0
20260505220050 84 167 12.0 22.0 0.00 0.00 0.00 75 1005.0
20260505215602 84 173 10.0 14.0 0.00 0.00 0.00 75 1005.1
20260505214539 84 185 12.0 16.0 0.00 0.00 0.00 74 1005.2
20260505214042 84 192 11.0 16.0 0.00 0.00 0.00 74 1005.3
20260505213049 85 196 12.0 21.0 0.00 0.00 0.00 73 1005.2
20260505212559 85 164 10.0 21.0 0.00 0.00 0.00 73 1005.4
20260505211621 84 191 13.0 17.0 0.00 0.00 0.00 73 1005.5
20260505211032 84 184 11.0 18.0 0.00 0.00 0.00 74 1005.6
20260505210053 85 201 10.0 15.0 0.00 0.00 0.00 74 1005.8
20260505205617 85 178 11.0 18.0 0.00 0.00 0.00 74 1005.9
20260505204617 84 192 12.0 18.0 0.00 0.00 0.00 74 1006.0
20260505204031 84 195 11.0 15.0 0.00 0.00 0.00 75 1006.0
20260505203054 84 181 11.0 16.0 0.00 0.00 0.00 75 1006.3
20260505202543 84 157 11.0 17.0 0.00 0.00 0.00 76 1006.3
20260505201604 84 207 11.0 18.0 0.00 0.00 0.00 75 1006.4
20260505201053 84 162 12.0 17.0 0.00 0.00 0.00 73 1006.5
20260505200052 84 195 10.0 17.0 0.00 0.00 0.00 76 1006.6
20260505195533 83 227 13.0 17.0 0.00 0.00 0.00 76 1006.6
20260505194601 83 170 10.0 18.0 0.00 0.00 0.00 76 1006.7
20260505194108 84 198 13.0 18.0 0.00 0.00 0.00 74 1006.7
20260505193115 84 219 10.0 21.0 0.00 0.00 0.00 75 1006.9
20260505192557 84 182 11.0 19.0 0.00 0.00 0.00 75 1006.8
20260505192103 84 184 10.0 17.0 0.00 0.00 0.00 76 1007.0
20260505191527 82 178 13.0 17.0 0.00 0.00 0.00 77 1007.0
20260505191140 82 205 12.0 16.0 0.00 0.00 0.00 76 1007.1
20260505190557 83 200 11.0 15.0 0.00 0.00 0.00 76 1007.1
20260505190030 83 184 11.0 20.0 0.00 0.00 0.00 76 1007.1
20260505185540 83 225 10.0 20.0 0.00 0.00 0.00 76 1007.1
20260505184601 83 199 11.0 18.0 0.00 0.00 0.00 77 1007.3
20260505184118 83 182 13.0 20.0 0.00 0.00 0.00 76 1007.3
20260505183116 82 205 9.0 15.0 0.00 0.00 0.00 78 1007.5
20260505182621 81 184 8.0 16.0 0.00 0.00 0.00 79 1007.5
20260505181622 81 257 13.0 16.0 0.00 0.00 0.00 77 1007.6
20260505181025 82 227 10.0 18.0 0.00 0.00 0.00 78 1007.6
20260505180042 81 213 12.0 22.0 0.00 0.00 0.00 78 1007.6
20260505175553 81 207 13.0 21.0 0.00 0.00 0.00 78 1007.6
20260505175055 81 191 12.0 20.0 0.00 0.00 0.00 78 1007.7
20260505174525 81 219 10.0 15.0 0.00 0.00 0.00 79 1007.8
20260505174035 80 164 11.0 15.0 0.00 0.00 0.00 79 1007.9
20260505173055 81 232 12.0 21.0 0.00 0.00 0.00 77 1007.8
20260505172556 81 211 11.0 21.0 0.00 0.00 0.00 79 1007.8
20260505171624 81 202 14.0 22.0 0.00 0.00 0.00 78 1007.9
20260505171030 80 195 11.0 17.0 0.00 0.00 0.00 80 1007.9
20260505170637 80 232 8.0 17.0 0.00 0.00 0.00 81 1008.1
20260505170038 80 216 9.0 21.0 0.00 0.00 0.00 82 1008.1
20260505165546 79 211 13.0 21.0 0.00 0.00 0.00 82 1008.1
20260505164606 79 223 11.0 18.0 0.00 0.00 0.00 83 1008.2
20260505164056 78 210 10.0 16.0 0.00 0.00 0.00 83 1008.1
20260505163056 78 202 8.0 21.0 0.00 0.00 0.00 84 1008.2
20260505162606 78 242 13.0 21.0 0.00 0.00 0.00 83 1008.1
20260505162111 78 213 9.0 19.0 0.00 0.00 0.00 85 1008.2
20260505161537 77 215 12.0 19.0 0.00 0.00 0.00 85 1008.2
20260505161044 77 221 10.0 18.0 0.00 0.00 0.00 86 1008.2
20260505153118 75 209 6.0 13.0 0.00 0.00 0.00 88 1008.0
20260505152527 75 207 10.0 13.0 0.00 0.00 0.00 88 1008.1
20260505152131 75 198 10.0 13.0 0.00 0.00 0.00 88 1008.1
20260505151540 75 209 7.0 13.0 0.00 0.00 0.00 88 1008.1
20260505151053 75 199 10.0 13.0 0.00 0.00 0.00 88 1008.0
20260505140120 74 196 7.0 13.0 0.00 0.00 0.00 89 1007.8
20260505130116 72 173 10.0 17.0 0.00 0.00 0.00 90 1007.3
20260505124626 72 190 11.0 16.0 0.00 0.00 0.00 90 1007.3
20260505124116 72 219 10.0 16.0 0.00 0.00 0.00 91 1007.4
20260505123618 72 180 10.0 15.0 0.00 0.00 0.00 90 1007.3
20260505123028 72 163 8.0 14.0 0.00 0.00 0.00 91 1007.3
20260505122536 72 215 9.0 15.0 0.00 0.00 0.00 91 1007.4
20260505121634 72 213 9.0 15.0 0.00 0.00 0.00 91 1007.0
20260505121054 72 191 9.0 16.0 0.00 0.00 0.00 91 1006.9
20260505120601 71 215 10.0 15.0 0.00 0.00 0.00 91 1006.9
20260505120024 71 208 8.0 15.0 0.00 0.00 0.00 91 1007.0
20260505115635 71 202 8.0 15.0 0.00 0.00 0.00 91 1007.1
20260505114614 71 207 10.0 14.0 0.00 0.00 0.00 91 1007.1
20260505114058 71 204 10.0 17.0 0.00 0.00 0.00 91 1007.0
20260505113608 71 194 10.0 17.0 0.00 0.00 0.00 91 1007.1
20260505112533 71 200 11.0 16.0 0.00 0.00 0.00 91 1006.9
20260505111553 71 200 10.0 17.0 0.00 0.00 0.00 91 1007.0
20260505111100 71 202 10.0 20.0 0.00 0.00 0.00 91 1006.8
20260505110557 71 189 12.0 18.0 0.00 0.00 0.00 91 1006.7
20260505102114 70 186 10.0 15.0 0.00 0.00 0.00 90 1006.9
20260505101534 70 190 9.0 13.0 0.00 0.00 0.00 91 1007.0
20260505101045 70 200 9.0 15.0 0.00 0.00 0.00 90 1006.8
20260505100044 70 200 11.0 19.0 0.00 0.00 0.00 91 1007.1
20260505095553 70 196 9.0 13.0 0.00 0.00 0.00 90 1007.1
20260505094547 70 214 8.0 15.0 0.00 0.00 0.00 90 1007.0
20260505094053 70 192 10.0 15.0 0.00 0.00 0.00 90 1007.0
20260505093558 70 192 8.0 13.0 0.00 0.00 0.00 90 1006.9
20260505093029 70 186 9.0 14.0 0.00 0.00 0.00 90 1007.0
20260505092532 70 200 9.0 15.0 0.00 0.00 0.00 90 1007.1
20260505091552 71 202 10.0 14.0 0.00 0.00 0.00 89 1007.3
20260505091102 71 208 8.0 19.0 0.00 0.00 0.00 89 1007.3
20260505090558 71 217 12.0 18.0 0.00 0.00 0.00 89 1007.2
20260505090025 71 209 11.0 17.0 0.00 0.00 0.00 89 1007.1
20260505085541 71 184 10.0 18.0 0.00 0.00 0.00 89 1007.1
20260505085141 71 196 10.0 18.0 0.00 0.00 0.00 89 1007.2
20260505084549 71 202 11.0 16.0 0.00 0.00 0.00 89 1007.3
20260505084102 71 204 13.0 16.0 0.00 0.00 0.00 89 1007.4
20260505083103 71 194 10.0 14.0 0.00 0.00 0.00 89 1007.7
20260505082606 71 186 8.0 16.0 0.00 0.00 0.00 89 1007.8
20260505082116 71 205 9.0 14.0 0.00 0.00 0.00 89 1007.8
20260505081544 71 204 9.0 14.0 0.00 0.00 0.00 88 1007.8
20260505081046 71 219 9.0 16.0 0.00 0.00 0.00 88 1007.7
20260505080109 71 199 8.0 13.0 0.00 0.00 0.00 88 1007.9
20260505075601 71 190 8.0 12.0 0.00 0.00 0.00 88 1008.0
20260505075101 71 190 8.0 12.0 0.00 0.00 0.00 88 1008.0
20260505074531 71 185 9.0 15.0 0.00 0.00 0.00 88 1007.9
20260505074123 71 203 9.0 13.0 0.00 0.00 0.00 88 1007.9
20260505073626 71 196 8.0 15.0 0.00 0.00 0.00 88 1008.1
20260505073049 70 180 9.0 15.0 0.00 0.00 0.00 88 1008.2
20260505072558 70 190 7.0 10.0 0.00 0.00 0.00 88 1008.2
20260505071620 70 189 8.0 14.0 0.00 0.00 0.00 88 1008.4